Location: Vienna
(48.2082°N, 16.3738°E)
Time: 22:25:44
(UTC+02:00)

ISS - Pass Details

Date: 20 July 2018
Orbit: 402 x 408 km, 51.6° (Epoch: 20 July)

Event Time Altitude Azimuth Distance (km) Brightness Sun altitude
Rises 02:14:39 0° 288° (WNW) 2,329 0.0 -19.1°
Reaches altitude 10° 02:16:46 10° 293° (WNW) 1,469 -1.0 -19.0°
Maximum altitude 02:20:00 52° 11° (NNE) 515 -3.0 -18.8°
Drops below altitude 10° 02:23:14 10° 90° (E) 1,469 -0.8 -18.7°
Sets 02:25:21 0° 95° (E) 2,329 0.2 -18.5°
